Find Starlink 5769

NORAD ID: 55585 Int'l Des: 2023-020 Owner: SPXS Country: US Constellation: starlink operational
LEOCIRCULAR

Live-Position

3D-Globus wird geladen...

Über Starlink 5769

Beschreibung wird geladen...

Nächste Überflüge

Passes for default location (London). Set your location on the main map for personalized predictions.

Höhenverlauf

Loading altitude history...

Zweizeiliger Elementsatz

1 55585U 23020S 26126.08502384 -.00000480 00000-0 -79201-5 0 9990
2 55585 43.0050 30.4019 0001344 250.9956 109.0750 15.27569590177812
Epoch: 6. Mai 2026 • Age: 11 hours

Aktueller Status

Höhe 486.3 km
Geschwindigkeit 7.63 km/s
Subsatellitenpunkt 39.19°N, 23.93°E
Startdatum 12. Feb. 2023
Alter 3.2 years
Typ internet

Technische Details

Klassifizierung Payload
Masse 305.00 kg
Trockenmasse 290.00 kg
Gesamtmasse 305.00 kg
Länge 0.20 m
Durchmesser 2.80 m
Spannweite 9.00 m
Form Box + pan
Hersteller SPXS
Bus-Typ Starlink
Phasenstatus In Orbit
Besitzer/Staat SPXS/US

Most Searched